sat.trackr.live / text

‹ back to catalog

EXCITE

NORAD 43819 · 2018-099BP

PAYLOAD ACTIVE UNKNOWN

§ Identity

Operator
Country
US
Launch date
2018-12-03
Launch site
AFWTR
Launch vehicle
Mass (kg)
RCS (m²)

External: N2YO · Heavens-Above · Gunter

§ Orbital elements

Epoch: 2026-05-25T02:18:20.531808Z

Period
95.59 min
Inclination
97.3984°
Eccentricity
0.0020081
Mean motion
15.06386338 rev/d
Perigee alt
533.3 km
Apogee alt
561.2 km
Semi-major
6,925.4 km
B*
1.1326e-4
RAAN
184.7764°
Arg perigee
72.5338°
Mean anomaly
287.8083°
Rev number
40,827

§ Raw data

EXCITE1 43819U 18099BP  26145.09607097  .00001615  00000+0  11326-3 0  99962 43819  97.3984 184.7764 0020081  72.5338 287.8083 15.06386338408273

JSON: /api/v1/satellites/43819 · /tle

For live sub-satellite position, see the globe view (requires WebGL).

§ Visibility from observer

Set your observer location to see the next 7 days of passes ≥ 10°. The values pass through the URL so the page stays shareable.

No JS? Fill the form by hand. The geolocation button needs JavaScript.